DLH1387 EPPO-EDDF

Flight info

Callsign DLH1387
Flight time 1h 0m
Altitude 36000
Route ELSUP Z181 XIGRI DCT KUBOG DCT NIMAB T171 MAIXE/N0399F300 T171 LASTO T178 ROBEL/N0363F240 T178 KERAX KERAX5A
Aircraft A319/M-SDE3FGHIRWY/LB1

Departure

Time 2026-05-07 08:59
Airport Poznań-Ławica Airport (EPPO)

Arrival

Time 2026-05-07 09:59
Airport Frankfurt Main Airport (EDDF)
Time Latitude Longitude Altitude Speed Heading
2026-05-07 08:49 52.41596 16.82697 304 ft 0 kts 43°
2026-05-07 08:52 52.41595 16.82725 304 ft 7 kts 162°
2026-05-07 08:53 52.41573 16.82726 303 ft 0 kts 180°
2026-05-07 08:54 52.41595 16.82726 304 ft 5 kts 180°
2026-05-07 08:54 52.41631 16.82727 303 ft 5 kts 180°
2026-05-07 08:55 52.41655 16.82726 302 ft 5 kts 152°
2026-05-07 08:55 52.41668 16.82696 303 ft 0 kts 89°
2026-05-07 08:55 52.41670 16.82785 303 ft 19 kts 91°
2026-05-07 08:56 52.41645 16.82995 302 ft 18 kts 103°
2026-05-07 08:56 52.41622 16.83180 303 ft 16 kts 101°
2026-05-07 08:56 52.41598 16.83342 302 ft 14 kts 103°
2026-05-07 08:56 52.41579 16.83483 301 ft 12 kts 101°
2026-05-07 08:57 52.41570 16.83605 299 ft 10 kts 93°
2026-05-07 08:57 52.41566 16.83731 298 ft 12 kts 94°
2026-05-07 08:57 52.41564 16.83852 298 ft 10 kts 78°
2026-05-07 08:57 52.41638 16.83983 300 ft 20 kts 28°
2026-05-07 08:58 52.41757 16.84057 299 ft 17 kts 21°
2026-05-07 08:58 52.41837 16.84015 298 ft 14 kts 291°
2026-05-07 08:58 52.41935 16.83513 302 ft 87 kts 288°
2026-05-07 08:58 52.42194 16.82184 358 ft 149 kts 290°
2026-05-07 08:59 52.42512 16.80596 1124 ft 147 kts 291°
2026-05-07 08:59 52.42826 16.78981 1880 ft 156 kts 291°
2026-05-07 08:59 52.43180 16.77165 2422 ft 179 kts 291°
2026-05-07 08:59 52.43582 16.75093 2956 ft 203 kts 290°
2026-05-07 09:00 52.43837 16.72667 3504 ft 232 kts 267°
2026-05-07 09:00 52.43519 16.69922 4168 ft 257 kts 257°
2026-05-07 09:00 52.43073 16.67041 5226 ft 263 kts 256°
2026-05-07 09:00 52.42622 16.64116 6352 ft 267 kts 256°
2026-05-07 09:01 52.42192 16.61130 7393 ft 272 kts 256°
2026-05-07 09:01 52.41784 16.58084 8456 ft 275 kts 256°
2026-05-07 09:01 52.41387 16.54992 9515 ft 280 kts 256°
2026-05-07 09:01 52.40997 16.51825 10340 ft 293 kts 256°
2026-05-07 09:02 52.40587 16.48434 10876 ft 312 kts 256°
2026-05-07 09:02 52.40160 16.44911 11731 ft 319 kts 256°
2026-05-07 09:02 52.39723 16.41330 12653 ft 323 kts 256°
2026-05-07 09:02 52.39281 16.37698 13591 ft 327 kts 256°
2026-05-07 09:03 52.38833 16.34021 14425 ft 331 kts 256°
2026-05-07 09:03 52.38445 16.30270 15216 ft 338 kts 264°
2026-05-07 09:03 52.38708 16.26403 15987 ft 348 kts 282°
2026-05-07 09:03 52.39381 16.22581 16797 ft 352 kts 284°
2026-05-07 09:04 52.40090 16.18723 17598 ft 356 kts 284°
2026-05-07 09:04 52.40814 16.14833 18369 ft 360 kts 285°
2026-05-07 09:04 52.41548 16.10887 19065 ft 363 kts 284°
2026-05-07 09:04 52.42278 16.06913 19795 ft 366 kts 284°
2026-05-07 09:05 52.43010 16.02898 20525 ft 370 kts 284°
2026-05-07 09:05 52.43746 15.98844 21234 ft 373 kts 284°
2026-05-07 09:05 52.44486 15.94740 21931 ft 377 kts 284°
2026-05-07 09:05 52.45230 15.90596 22607 ft 381 kts 284°
2026-05-07 09:06 52.45979 15.86411 23279 ft 385 kts 284°
2026-05-07 09:06 52.46739 15.82171 23879 ft 389 kts 284°
2026-05-07 09:06 52.47506 15.77898 24444 ft 392 kts 284°
2026-05-07 09:06 52.48276 15.73592 25013 ft 395 kts 283°
2026-05-07 09:07 52.49046 15.69260 25583 ft 397 kts 283°
2026-05-07 09:07 52.49819 15.64895 26152 ft 399 kts 282°
2026-05-07 09:07 52.50594 15.60511 26708 ft 402 kts 282°
2026-05-07 09:07 52.51375 15.56085 27269 ft 404 kts 282°
2026-05-07 09:08 52.52158 15.51642 27815 ft 406 kts 281°
2026-05-07 09:08 52.52943 15.47167 28354 ft 408 kts 281°
2026-05-07 09:08 52.53622 15.42640 28877 ft 407 kts 274°
2026-05-07 09:08 52.53868 15.38037 29395 ft 404 kts 265°
2026-05-07 09:09 52.53738 15.33431 29907 ft 404 kts 262°
2026-05-07 09:09 52.53574 15.28860 30357 ft 407 kts 262°
2026-05-07 09:09 52.53410 15.24198 30767 ft 409 kts 262°
2026-05-07 09:09 52.53247 15.19514 31170 ft 412 kts 262°
2026-05-07 09:10 52.53085 15.14794 31569 ft 415 kts 262°
2026-05-07 09:10 52.52919 15.10066 32097 ft 413 kts 262°
2026-05-07 09:10 52.52749 15.05372 32675 ft 411 kts 262°
2026-05-07 09:10 52.52577 15.00694 33250 ft 409 kts 261°
2026-05-07 09:11 52.52405 14.96038 33844 ft 407 kts 261°
2026-05-07 09:11 52.52008 14.91488 34335 ft 399 kts 249°
2026-05-07 09:11 52.50969 14.87310 34700 ft 395 kts 241°
2026-05-07 09:11 52.49776 14.83243 35032 ft 397 kts 240°
2026-05-07 09:12 52.48563 14.79166 35354 ft 398 kts 240°
2026-05-07 09:12 52.47338 14.75075 35663 ft 400 kts 241°
2026-05-07 09:12 52.46106 14.70973 35976 ft 402 kts 241°
2026-05-07 09:12 52.44872 14.66849 36285 ft 404 kts 241°
2026-05-07 09:13 52.43634 14.62709 36593 ft 405 kts 241°
2026-05-07 09:13 52.42391 14.58559 36890 ft 407 kts 241°
2026-05-07 09:13 52.41143 14.54396 37184 ft 408 kts 241°
2026-05-07 09:13 52.39890 14.50219 37470 ft 409 kts 242°
2026-05-07 09:14 52.38634 14.46030 37786 ft 410 kts 242°
2026-05-07 09:14 52.37372 14.41829 37959 ft 412 kts 242°
2026-05-07 09:14 52.34843 14.33443 37986 ft 410 kts 242°
2026-05-07 09:15 52.32310 14.25085 37988 ft 410 kts 242°
2026-05-07 09:15 52.29766 14.16733 37989 ft 410 kts 241°
2026-05-07 09:16 52.27220 14.08393 37989 ft 410 kts 241°
2026-05-07 09:16 52.24688 14.00115 37991 ft 411 kts 241°
2026-05-07 09:17 52.22125 13.91770 37992 ft 411 kts 241°
2026-05-07 09:17 52.19548 13.83431 37997 ft 411 kts 241°
2026-05-07 09:18 52.16971 13.75109 38002 ft 412 kts 241°
2026-05-07 09:18 52.14399 13.66818 37996 ft 412 kts 241°
2026-05-07 09:19 52.11799 13.58489 37998 ft 413 kts 241°
2026-05-07 09:19 52.09191 13.50162 37995 ft 413 kts 241°
2026-05-07 09:20 52.06577 13.41827 37994 ft 414 kts 241°
2026-05-07 09:20 52.03960 13.33499 37988 ft 414 kts 241°
2026-05-07 09:21 52.01330 13.25162 37986 ft 415 kts 241°
2026-05-07 09:21 51.98684 13.16831 37990 ft 415 kts 241°
2026-05-07 09:22 51.96028 13.08486 37988 ft 416 kts 241°
2026-05-07 09:22 51.93388 13.00203 37992 ft 416 kts 241°
2026-05-07 09:23 51.90723 12.91871 37992 ft 416 kts 241°
2026-05-07 09:23 51.88050 12.83547 37993 ft 417 kts 241°
2026-05-07 09:24 51.85366 12.75226 37992 ft 417 kts 241°
2026-05-07 09:24 51.82682 12.66921 37997 ft 417 kts 241°
2026-05-07 09:25 51.79985 12.58615 38000 ft 417 kts 241°
2026-05-07 09:25 51.77285 12.50321 37999 ft 417 kts 241°
2026-05-07 09:26 51.74678 12.42455 37994 ft 416 kts 237°
2026-05-07 09:26 51.71469 12.34696 37957 ft 416 kts 234°
2026-05-07 09:27 51.69826 12.30852 37728 ft 416 kts 234°
2026-05-07 09:27 51.68183 12.27029 37468 ft 415 kts 234°
2026-05-07 09:27 51.64896 12.19381 36940 ft 415 kts 234°
2026-05-07 09:28 51.63257 12.15555 36682 ft 415 kts 234°
2026-05-07 09:28 51.61611 12.11714 36429 ft 421 kts 234°
2026-05-07 09:28 51.59939 12.07819 36185 ft 424 kts 234°
2026-05-07 09:28 51.58258 12.03904 35930 ft 426 kts 234°
2026-05-07 09:29 51.56575 11.99983 35680 ft 426 kts 234°
2026-05-07 09:29 51.54892 11.96065 35481 ft 426 kts 234°
2026-05-07 09:29 51.53202 11.92147 35365 ft 426 kts 234°
2026-05-07 09:29 51.51512 11.88237 35244 ft 427 kts 234°
2026-05-07 09:30 51.49816 11.84322 35127 ft 427 kts 234°
2026-05-07 09:30 51.48121 11.80414 35011 ft 427 kts 234°
2026-05-07 09:30 51.46421 11.76495 34890 ft 427 kts 234°
2026-05-07 09:30 51.44719 11.72587 34717 ft 428 kts 234°
2026-05-07 09:31 51.43013 11.68672 34489 ft 428 kts 234°
2026-05-07 09:31 51.41296 11.64727 34249 ft 437 kts 234°
2026-05-07 09:31 51.39545 11.60711 34024 ft 442 kts 234°
2026-05-07 09:31 51.37774 11.56656 33757 ft 445 kts 234°
2026-05-07 09:32 51.35995 11.52596 33466 ft 447 kts 234°
2026-05-07 09:32 51.34203 11.48515 33062 ft 449 kts 234°
2026-05-07 09:32 51.32404 11.44425 32652 ft 452 kts 234°
2026-05-07 09:32 51.30587 11.40303 32250 ft 454 kts 233°
2026-05-07 09:33 51.28758 11.36164 31856 ft 457 kts 233°
2026-05-07 09:33 51.26919 11.32007 31467 ft 460 kts 233°
2026-05-07 09:33 51.25087 11.27862 31167 ft 450 kts 233°
2026-05-07 09:33 51.23314 11.23844 30913 ft 436 kts 233°
2026-05-07 09:34 51.21586 11.19936 30660 ft 424 kts 233°
2026-05-07 09:34 51.20469 11.17412 30500 ft 417 kts 232°
2026-05-07 09:34 51.18810 11.13682 30253 ft 408 kts 232°
2026-05-07 09:34 51.17179 11.10029 29998 ft 402 kts 232°
2026-05-07 09:35 51.15563 11.06417 29706 ft 399 kts 232°
2026-05-07 09:35 51.13956 11.02819 29425 ft 397 kts 232°
2026-05-07 09:35 51.12360 10.99245 29132 ft 395 kts 232°
2026-05-07 09:35 51.10768 10.95688 28850 ft 393 kts 232°
2026-05-07 09:36 51.09184 10.92161 28570 ft 391 kts 232°
2026-05-07 09:36 51.07604 10.88647 28292 ft 389 kts 232°
2026-05-07 09:36 51.06038 10.85163 27900 ft 387 kts 232°
2026-05-07 09:36 51.04447 10.81632 27416 ft 404 kts 232°
2026-05-07 09:37 51.02779 10.77940 26945 ft 414 kts 232°
2026-05-07 09:37 51.01099 10.74221 26451 ft 414 kts 233°
2026-05-07 09:37 50.99424 10.70511 25960 ft 412 kts 233°
2026-05-07 09:37 50.97762 10.66826 25445 ft 408 kts 233°
2026-05-07 09:38 50.96114 10.63180 24937 ft 405 kts 233°
2026-05-07 09:38 50.94477 10.59568 24407 ft 402 kts 233°
2026-05-07 09:38 50.92847 10.55979 23880 ft 400 kts 233°
2026-05-07 09:38 50.91224 10.52418 23318 ft 397 kts 233°
2026-05-07 09:39 50.89607 10.48880 22775 ft 394 kts 233°
2026-05-07 09:39 50.88004 10.45379 22275 ft 391 kts 233°
2026-05-07 09:39 50.86411 10.41900 21772 ft 388 kts 233°
2026-05-07 09:39 50.84832 10.38454 21289 ft 385 kts 233°
2026-05-07 09:40 50.83267 10.35040 20818 ft 382 kts 233°
2026-05-07 09:40 50.81712 10.31655 20336 ft 379 kts 233°
2026-05-07 09:40 50.80171 10.28304 19859 ft 376 kts 233°
2026-05-07 09:40 50.78639 10.24978 19389 ft 373 kts 233°
2026-05-07 09:41 50.77121 10.21676 18925 ft 370 kts 233°
2026-05-07 09:41 50.75615 10.18407 18467 ft 367 kts 233°
2026-05-07 09:41 50.74116 10.15158 17983 ft 365 kts 234°
2026-05-07 09:41 50.72627 10.11936 17526 ft 362 kts 234°
2026-05-07 09:42 50.71148 10.08734 17090 ft 360 kts 234°
2026-05-07 09:42 50.69679 10.05561 16645 ft 357 kts 234°
2026-05-07 09:42 50.68215 10.02406 16216 ft 355 kts 234°
2026-05-07 09:42 50.66760 9.99281 15789 ft 353 kts 234°
2026-05-07 09:43 50.65313 9.96179 15377 ft 350 kts 234°
2026-05-07 09:43 50.63875 9.93095 14966 ft 348 kts 234°
2026-05-07 09:43 50.62446 9.90035 14552 ft 346 kts 234°
2026-05-07 09:43 50.61026 9.86997 14127 ft 343 kts 235°
2026-05-07 09:44 50.59624 9.83973 13727 ft 340 kts 235°
2026-05-07 09:44 50.58236 9.80974 13268 ft 338 kts 235°
2026-05-07 09:44 50.56858 9.77994 12815 ft 335 kts 235°
2026-05-07 09:44 50.55490 9.75034 12371 ft 333 kts 235°
2026-05-07 09:45 50.54134 9.72096 11933 ft 331 kts 235°
2026-05-07 09:45 50.52790 9.69182 11497 ft 328 kts 235°
2026-05-07 09:45 50.51463 9.66300 11091 ft 323 kts 235°
2026-05-07 09:45 50.50170 9.63484 10838 ft 313 kts 235°
2026-05-07 09:46 50.48914 9.60750 10591 ft 304 kts 235°
2026-05-07 09:46 50.47689 9.58085 10345 ft 297 kts 235°
2026-05-07 09:46 50.46492 9.55484 10101 ft 290 kts 235°
2026-05-07 09:46 50.45318 9.52929 9855 ft 288 kts 235°
2026-05-07 09:47 50.44153 9.50390 9590 ft 287 kts 235°
2026-05-07 09:47 50.42987 9.47862 9321 ft 286 kts 235°
2026-05-07 09:47 50.41821 9.45345 9015 ft 284 kts 235°
2026-05-07 09:47 50.40657 9.42845 8703 ft 283 kts 235°
2026-05-07 09:48 50.39495 9.40355 8388 ft 282 kts 235°
2026-05-07 09:48 50.38339 9.37883 8085 ft 280 kts 235°
2026-05-07 09:48 50.37186 9.35431 7771 ft 279 kts 235°
2026-05-07 09:48 50.36037 9.32990 7470 ft 278 kts 235°
2026-05-07 09:49 50.34892 9.30569 7191 ft 276 kts 233°
2026-05-07 09:49 50.33631 9.28292 7019 ft 276 kts 229°
2026-05-07 09:49 50.32336 9.26073 6987 ft 276 kts 229°
2026-05-07 09:49 50.31036 9.23856 6993 ft 276 kts 229°
2026-05-07 09:50 50.29776 9.21714 6922 ft 260 kts 229°
2026-05-07 09:50 50.28571 9.19674 6729 ft 251 kts 229°
2026-05-07 09:50 50.27404 9.17704 6530 ft 244 kts 229°
2026-05-07 09:50 50.26256 9.15774 6331 ft 241 kts 229°
2026-05-07 09:51 50.25115 9.13862 6112 ft 241 kts 229°
2026-05-07 09:51 50.23972 9.11948 5912 ft 240 kts 229°
2026-05-07 09:51 50.22834 9.10041 5708 ft 239 kts 229°
2026-05-07 09:51 50.21702 9.08142 5497 ft 238 kts 229°
2026-05-07 09:52 50.20574 9.06259 5296 ft 238 kts 229°
2026-05-07 09:52 50.19442 9.04370 5092 ft 238 kts 229°
2026-05-07 09:52 50.18314 9.02482 4896 ft 237 kts 229°
2026-05-07 09:52 50.17188 9.00599 4758 ft 237 kts 229°
2026-05-07 09:53 50.16064 8.98722 4619 ft 237 kts 229°
2026-05-07 09:53 50.14936 8.96843 4456 ft 236 kts 229°
2026-05-07 09:53 50.13815 8.94977 4303 ft 236 kts 229°
2026-05-07 09:53 50.12704 8.93130 4146 ft 230 kts 229°
2026-05-07 09:54 50.11716 8.91269 4034 ft 215 kts 245°
2026-05-07 09:54 50.11193 8.89170 3993 ft 201 kts 253°
2026-05-07 09:54 50.10732 8.87126 3995 ft 200 kts 253°
2026-05-07 09:54 50.10258 8.85085 3924 ft 200 kts 252°
2026-05-07 09:55 50.09782 8.83059 3703 ft 198 kts 252°
2026-05-07 09:55 50.09308 8.81044 3475 ft 198 kts 252°
2026-05-07 09:55 50.08836 8.79041 3196 ft 197 kts 252°
2026-05-07 09:55 50.08366 8.77053 2914 ft 194 kts 252°
2026-05-07 09:56 50.07906 8.75108 2648 ft 190 kts 252°
2026-05-07 09:56 50.07455 8.73200 2392 ft 186 kts 252°
2026-05-07 09:56 50.07018 8.71354 2148 ft 176 kts 253°
2026-05-07 09:56 50.06609 8.69629 1911 ft 164 kts 253°
2026-05-07 09:57 50.06238 8.68069 1715 ft 145 kts 253°
2026-05-07 09:57 50.05907 8.66674 1497 ft 131 kts 253°
2026-05-07 09:57 50.05601 8.65383 1327 ft 126 kts 253°
2026-05-07 09:57 50.05302 8.64121 1155 ft 123 kts 253°
2026-05-07 09:58 50.05008 8.62883 990 ft 121 kts 253°
2026-05-07 09:58 50.04717 8.61657 823 ft 120 kts 253°
2026-05-07 09:58 50.04425 8.60438 650 ft 120 kts 252°
2026-05-07 09:58 50.04139 8.59228 482 ft 119 kts 252°
2026-05-07 09:59 50.03855 8.58038 369 ft 109 kts 252°
2026-05-07 09:59 50.03639 8.57119 354 ft 67 kts 250°
2026-05-07 09:59 50.03522 8.56624 351 ft 41 kts 250°
2026-05-07 09:59 50.03441 8.56260 353 ft 33 kts 259°
2026-05-07 10:00 50.03448 8.55951 349 ft 25 kts 279°
2026-05-07 10:00 50.03481 8.55722 351 ft 18 kts 305°
2026-05-07 10:00 50.03565 8.55780 355 ft 17 kts 68°
2026-05-07 10:00 50.03636 8.56077 357 ft 34 kts 70°
2026-05-07 10:01 50.03720 8.56426 353 ft 35 kts 69°
2026-05-07 10:01 50.03804 8.56779 355 ft 35 kts 70°
2026-05-07 10:01 50.03888 8.57130 361 ft 34 kts 69°
2026-05-07 10:01 50.03967 8.57464 369 ft 32 kts 70°
2026-05-07 10:02 50.04045 8.57791 369 ft 32 kts 69°
2026-05-07 10:02 50.04125 8.58121 371 ft 33 kts 70°
2026-05-07 10:02 50.04205 8.58454 371 ft 33 kts 69°
2026-05-07 10:02 50.04286 8.58789 372 ft 33 kts 69°
2026-05-07 10:03 50.04363 8.59112 377 ft 32 kts 69°
2026-05-07 10:03 50.04426 8.59374 376 ft 22 kts 70°
2026-05-07 10:03 50.04488 8.59470 375 ft 13 kts 359°
2026-05-07 10:03 50.04592 8.59467 373 ft 17 kts 357°
2026-05-07 10:04 50.04714 8.59435 372 ft 19 kts 342°
2026-05-07 10:04 50.04842 8.59362 373 ft 21 kts 343°
2026-05-07 10:04 50.04991 8.59341 368 ft 24 kts 339°
2026-05-07 10:04 50.05078 8.59207 360 ft 17 kts 255°